COSMOS 2500 (755)

Last updated on Aug. 10, 2020, 5:34 a.m. UTC

1 40001U 14032A   20222.49492846 -.00000046  00000-0  00000-0 0  9990
2 40001  65.7098  25.7330 0006471 181.2730 120.8945  2.13102503 47896
UTC
Height (km)
Latitude
Longitude
Inclination
Orbital Period
UTC large
Height (km)
Speed (km/s)
/
Latitude / Longitude
Inclination (degrees)
Orbital Period (minutes)
Azimuth
Elevation
Range (km)
Doppler Factor
iOS Compass Heading
iOS Angle

Next 30 passes for location: Hong Kong

Rise time Rise Azimuth (degrees) Set time Set Azimuth (degrees) Duration Max altitude (degrees)

No matching passes for this satellites